www.pogodaiklimat.ru

Погода и климат >> Архив погоды >> Россия >> Новгородская область >> Демянск


ПОГОДА в Демянске

  • Прогноз погоды в Демянске
  • Монитор погоды в Демянске
  • Климат города

АРХИВ ПОГОДЫ в Демянске

Время (UTC), дата Ветер
(напр.,м/с)
 
Видим.   Явления Облачность Т
(С)
Тd
(С)
f
(%)
Тe
(С)
Тes
(С)
Комфортность P
(гПа)
Po
(гПа)
Тmin
(С)
Tmax
(С)
R
(мм)
R24
(мм)
S
(см)
03 13.09 ЮЗ 3 н/о н/о +12.3 +9.4 82 +11 +11 1010.8 1003.4 +12.1 0.1
06 13.09 З 4 50 км 6/6 600 м
[Cb calv]
+13.8 +9.2 74 +12 +13 1012.7 1005.3 +11.8 0.0
09 13.09 З 4 н/о н/о +17.0 +8.7 58 +17 +17 1014.1 1006.8
12 13.09 З 4 н/о н/о +18.8 +7.5 48 +19 +19 1015.1 1007.9
15 13.09 З 2 н/о н/о +17.4 +7.6 53 +18 +18 1015.8 1008.5
18 13.09 ЮЗ 1 50 км ясно +11.9 +8.6 80 +12 +12 1016.9 1009.5 +19.2
21 13.09 штиль 0 н/о н/о +7.6 +6.9 95 +7 +7 1017.8 1010.2
00 14.09 штиль 0 н/о н/о +4.7 +4.1 96 +4 +4 1018.5 1010.9
03 14.09 В 1 н/о н/о +3.0 +2.6 97 +1 +1 1019.1 1011.4 +2.9 0.1
06 14.09 штиль 0 50 км 9/9 600 м
[Sc]
+10.2 +8.6 90 +9 +10 1019.4 1011.9 +2.6
09 14.09 ЮЗ 2 н/о н/о +18.0 +8.7 55 +19 +19 1018.8 1011.5
12 14.09 З 2 н/о н/о +18.3 +7.7 50 +19 +19 1018.2 1010.9
15 14.09 З 1 н/о н/о +17.9 +8.1 53 +19 +19 1017.7 1010.4 0.3
18 14.09 В 1 50 км ясно +9.4 +8.6 95 +9 +9 1019.0 1011.5 +20.3
21 14.09 ЮВ 1 н/о н/о +6.3 +5.7 96 +5 +5 1019.8 1012.2
00 15.09 В 1 н/о н/о +3.9 +3.5 97 +2 +2 1020.5 1012.8
03 15.09 ЮВ 1 н/о н/о +2.9 +2.6 98 +1 +1 1020.6 1012.9 +2.9
06 15.09 В 1 50 км 3/0
[Ci fib]
+10.7 +8.2 85 +10 +13 1020.3 1012.8 +2.6
09 15.09 ЮЗ 2 н/о н/о +18.0 +8.8 55 +19 +19 1019.9 1012.6
12 15.09 З 1 н/о н/о +20.2 +7.8 45 +22 +22 комфорт 1017.8 1010.6
15 15.09 ЮВ 1 н/о н/о +16.1 +12.2 78 +17 +17 1016.4 1009.1 0.1
18 15.09 В 1 50 км 10/6 600 м
[Cb calv Ac As]
+11.8 +10.7 93 +12 +12 1015.8 1008.4 +20.5
21 15.09 В 1 н/о н/о +11.5 +10.1 91 +11 +11 1014.9 1007.5
00 16.09 ЮВ 1 н/о н/о +11.5 +9.8 89 +11 +11 1013.2 1005.8
03 16.09 штиль 0 н/о н/о +8.7 +7.9 95 +8 +8 1012.5 1005.0 +8.6
06 16.09 ЮЗ 2 50 км 9/4 600 м
[Cb calv Ac trans]
+11.2 +9.3 88 +10 +11 1012.3 1004.9 +8.0
09 16.09 З 2 н/о н/о +14.3 +9.8 74 +14 +14 1012.6 1005.3
12 16.09 З 3 н/о н/о +13.8 +9.5 75 +13 +13 1013.2 1005.9
15 16.09 СЗ 2 н/о н/о +14.9 +8.0 63 +15 +15 1014.4 1007.1 0.3
18 16.09 З 1 50 км ясно +6.9 +6.2 95 +6 +6 1016.6 1009.0 +15.8 0.4
21 16.09 В 1 н/о н/о +3.0 +2.4 96 +1 +1 1017.5 1009.8
00 17.09 ЮЗ 1 н/о н/о +2.5 +2.1 97 +1 +1 1017.7 1010.0
03 17.09 ЮЗ 1 н/о н/о +5.0 +4.6 97 +4 +4 1018.0 1010.4 +1.8
06 17.09 ЮЗ 2 50 км 1/0
[Ci fib]
+8.5 +6.5 87 +7 +8 1018.3 1010.8 +1.8
09 17.09 ЮЗ 4 н/о н/о +15.0 +7.9 62 +14 +14 1017.3 1009.9
12 17.09 ЮЗ 3 н/о н/о +15.0 +6.8 58 +14 +14 1015.8 1008.4
15 17.09 Ю 2 н/о н/о +11.7 +10.3 91 +11 +11 1013.8 1006.4 0.4
18 17.09 ЮЗ 3 50 км в посл. час ливневой дождь 10/10 600 м
[Cb calv]
+13.0 +10.5 85 +12 +12 1011.1 1003.7 +16.8 1
21 17.09 З 2 н/о н/о +12.4 +11.5 94 +11 +11 1010.5 1003.1
00 18.09 З 3 н/о н/о +12.7 +11.3 91 +11 +11 1010.4 1003.0
03 18.09 З 3 н/о н/о +12.6 +10.8 89 +11 +11 1011.5 1004.1 +11.8 4
06 18.09 СЗ 3 50 км 10/10 450 м
[Cb calv]
+12.6 +9.9 84 +11 +11 1014.0 1006.6 +12.2 3
09 18.09 З 4 н/о н/о +14.1 +8.1 67 +13 +13 1015.8 1008.4
12 18.09 З 3 н/о н/о +16.4 +7.5 56 +16 +16 1016.0 1008.7
15 18.09 З 1 н/о н/о +14.8 +7.8 63 +15 +15 1016.1 1008.7
18 18.09 ЮВ 1 50 км 10/0
[Ac As]
+9.9 +8.8 93 +9 +9 1016.6 1009.1 +16.7
21 18.09 Ю 1 н/о н/о +12.4 +9.8 84 +12 +12 1016.0 1008.6
00 19.09 ЮЗ 1 н/о н/о +12.3 +10.5 89 +12 +12 1014.5 1007.1
03 19.09 З 1 н/о н/о +12.4 +10.6 89 +12 +12 1013.9 1006.5 +9.7 0.5
06 19.09 ЮЗ 2 50 км 1/0
[Ac trans]
+15.2 +11.5 79 +15 +17 1013.7 1006.4 +9.9 0.4
09 19.09 ЮЗ 2 н/о н/о +21.0 +12.0 56 +24 +24 комфорт 1013.1 1005.9
12 19.09 З 4 н/о н/о +24.5 +10.6 42 +26 +26 жарко 1012.1 1005.0
15 19.09 ЮЗ 1 н/о н/о +22.7 +11.8 50 +25 +25 комфорт 1011.7 1004.6
18 19.09 Ю 1 50 км ясно +16.5 +12.0 75 +17 +17 1011.8 1004.5 +25.1
21 19.09 З 2 н/о н/о +17.3 +13.5 78 +18 +18 1011.6 1004.4
00 20.09 З 1 н/о н/о +13.9 +12.4 91 +14 +14 1012.8 1005.4

 

Местоположение метеостанции Демянск (Новгородская область, Россия): широта 57.65 долгота 32.47 высота над уровнем моря 61 м.

В архиве по умолчанию представлена погода в Демянске за последнюю неделю. Архивные данные за месяц целиком и за предыдущие месяцы, начиная с января 2011 года, Вы можете получить, выбрав интересующий диапазон дат из раскрывающегося списка и нажав кнопку "Ввод!".


*Определитесь, кто Вы:
робот инопланетянин человек

Внимание! Время в таблицах - всемирное. Для получения местного времени необходимо прибавить поправку, которая в Демянске равна 3 ч.

Смотрите также архив погоды в соседних городах и на ближайших метеорологических станциях:

Погода в Валдае (Новгородская область, Россия) (60 км)
Погода в Крестцах (Новгородская область, Россия) (69 км)
Погода в Осташкове (Тверская область, Россия) (71 км)
Погода в Старой Руссе (Новгородская область, Россия) (80 км)
Погода в Окуловке (Новгородская область, Россия) (94 км)
Погода в Холме (Новгородская область, Россия) (95 км)
Погода в Бологом (Тверская область, Россия) (96 км)
Погода в Боровичах (Новгородская область, Россия) (120 км)
Погода в Великом Новгороде (Новгородская область, Россия) (120 км)
Погода в Вышнем Волочке (Тверская область, Россия) (125 км)

Пояснения к столбцам:

Ветер - указаны скорость ветра в м/с - средняя за 10 мин, порывы в срок и между сроками (в фигурных скобках) и направление, откуда дует ветер: С - северный, СВ - северо-восточный, В - восточный, ЮВ - юго-восточный, Ю - южный, ЮЗ - юго-западный, З - западный, СЗ - северо-западный.
Видимость - горизонтальная дальность видимости в метрах или километрах. При видимости от 1 до 10 км при отсутствии осадков обычно наблюдается дымка, при ухудшении видимости до 1 км и менее - туман. В сухую погоду видимость может ухудшаться дымом, пылью или мглою.
Явления - указаны атмосферные явления, наблюдавшиеся в срок или в последний час перед сроком; фигурными скобками обозначены явления, наблюдавшиеся между сроками (за 1-3 часа до срока); квадратными скобками обозначены град или гололедные отложения с указанием их диаметра в мм.
Облачность - указаны через наклонную черту общая и нижняя облачность в баллах и высота нижней границы облаков в метрах; квадратными скобками обозначены формы облаков: Ci - перистые, Cs - перисто-слоистые, Cc - перисто-кучевые, Ac - высококучевые, As - высокослоистые, Sc - слоисто-кучевые, Ns - слоисто-дождевые, Cu - кучевые, Cb - кучево-дождевые. Подробнее классификацию облаков см. в Атласе облаков (PDF).
T - Температура воздуха - температура, измеренная на высоте 2 м над землей.
Td - Температура точки росы - температура, при понижении до которой содержащийся в воздухе водяной пар достигнет насыщения.
f - Относительная влажность воздуха - влажноcть воздуха, измеренная на высоте 2 м над землей.
Te - Эффективная температура - температура, которую ощущает одетый по сезону человек в тени. Характеристика душности погоды. При расчете учитывается влияние влажности воздуха и скорости ветра на теплоощущения человека.
Tes - Эффективная температура на солнце - температура, которую ощущает человек, с поправкой на солнечный нагрев. Характеристика знойности погоды. Зависит от высоты солнца над горизонтом, облачности и скорости ветра. Ночью, в пасмурную погоду, а также при ветре 12 м/с и более поправка равна нулю.
P - Атмосферное давление - приведенное к уровню моря атмосферное давление.
Po - Атмосферное давление - измеренное на уровне метеостанции атмосферное давление.
Tmin - Минимальная температура - минимум температуры воздуха на высоте 2 м над землей.
Tmax - Максимальная температура - максимум температуры воздуха на высоте 2 м над землей.
R - Количество осадков - Количество выпавших осадков за период времени, мм. При наведении курсора мыши на число - период времени, за который выпало указанное количество осадков.
R24 - Количество осадков - Количество выпавших осадков за 24 часа, мм.
S - Снежный покров - Высота снежного покрова, см. При наведении курсора мыши на число - состояние снежного покрова и степень покрытия местности в баллах.